Terug naar catalogus

STARLINK-33564

ActiefCommunicatieVLEO
NORAD 62286·PAYLOAD·🇺🇸 United States

Gelanceerd Dec 8, 2024 vanaf Cape Canaveral Space Force Station

Loading…

Volgende Passages (komende 24 uur)

TLE

VersSource: CelesTrak SupGP

Epoch: Sep 15, 2026, 02:06 UTC

1 62286C 24237V   26258.08798611 -.00033567  00000+0 -12160-2 0  2580
2 62286  42.9995 226.8731 0001378 266.7579 192.0780 15.27590500    16

Volg STARLINK-33564 in realtime met AllMySat

Download on the App Store